Home   Weather   Gaspé   Past weeks
Flag for Canada

Past Weather in Gaspé, Quebec, Canada — Yesterday and Last 2 Weeks

Now
12 °F

Passing clouds.


Feels Like: -3 °F
Forecast: 22 / 5 °F
Wind: 13 mph from Northwest

Location: Gaspe

Current Time: Mar 26, 2019 at 8:53:55 am

Latest Report: Mar 26, 2019 at 8:00 am


Visibility: 15 mi

Pressure: 30.03 "Hg

Humidity: 52%

Dew Point: -2 °F

Location of GaspéLocation

Past Weather in Gaspé — Graph

°F

Gaspé Temperature Yesterday

Maximum temperature yesterday: 21 °F (at 1:00 pm)
Minimum temperature yesterday: 3 °F (at 6:00 am)
Average temperature yesterday: 14 °F

High & Low Weather Summary for the Past Weeks

 TemperatureHumidityPressure
High48 °F (Mar 21, 1:00 pm)100% (Mar 11, 9:24 pm)30.27 "Hg (Mar 11, 9:24 pm)
Low-2 °F (Mar 20, 6:00 am)29% (Mar 24, 5:00 pm)29.09 "Hg (Mar 23, 10:17 am)
Average26 °F72%29.80 "Hg
* Reported Mar 11 7:00 am — Mar 26 7:00 am, Gaspé. Weather by CustomWeather, © 2019

Note: Actual official high and low records may vary slightly from our data, if they occured in-between our weather recording intervals... More about our weather records

Advertising

Gaspé Weather History for the Previous 24 Hours

Scroll right to see more
 ConditionsComfort  
Time TempWeatherWind HumidityBarometerVisibility
7:00 am
Tue, Mar 26
10 °FPassing clouds.8 mph61%30.01 "Hg15 mi
6:00 am7 °FPassing clouds.9 mph72%29.99 "Hg15 mi
5:00 am9 °FPassing clouds.8 mph72%29.97 "Hg15 mi
4:00 am3 °FPassing clouds.No wind85%29.94 "Hg15 mi
3:00 am3 °FPassing clouds.No wind85%29.95 "Hg15 mi
2:00 am5 °FClear.8 mph78%29.96 "Hg15 mi
1:00 am1 °FClear.3 mph85%29.96 "Hg15 mi
12:00 am5 °FClear.No wind78%29.96 "Hg15 mi
11:00 pm
Mon, Mar 25
9 °FPassing clouds.5 mph72%29.97 "Hg15 mi
10:00 pm14 °FPassing clouds.8 mph57%29.97 "Hg15 mi
9:00 pm14 °FClear.9 mph52%29.94 "Hg15 mi
8:00 pm14 °FClear.5 mph52%29.92 "Hg15 mi
7:00 pm18 °FPassing clouds.12 mph45%29.89 "Hg15 mi
6:00 pm19 °FScattered clouds.22 mph42%29.85 "Hg15 mi
5:00 pm21 °FPartly sunny.16 mph42%29.81 "Hg15 mi
4:00 pm21 °FPartly sunny.21 mph42%29.80 "Hg15 mi
3:00 pm21 °FPartly sunny.22 mph38%29.79 "Hg15 mi
2:00 pm21 °FPartly sunny.15 mph42%29.78 "Hg15 mi
1:00 pm21 °FPartly sunny.18 mph45%29.78 "Hg15 mi
12:00 pm19 °FPartly sunny.20 mph42%29.79 "Hg15 mi
11:00 am18 °FPartly sunny.17 mph45%29.81 "Hg15 mi
10:00 am18 °FPassing clouds.14 mph41%29.83 "Hg15 mi
9:00 am16 °FPassing clouds.16 mph45%29.84 "Hg15 mi
8:00 am10 °FSunny.7 mph56%29.86 "Hg15 mi
Weather by CustomWeather, © 2019

See weather overview